Trenton, NJ

10:26 PM EST on December 05, 2019 (GMT -0500)
Trenton Mercer

Weather History for KTTN - October, 2019

Change the Weather History Date:

Sunday, October 20, 2019

  Actual Average Record
Temperature  
Mean Temperature 48 °F 53 °F  
Max Temperature 54 °F 64 °F 80 °F (1969)
Min Temperature 41 °F 43 °F 30 °F (1972)
Degree Days  
Heating Degree Days 18 12  
Month to date heating degree days 154 182  
Since 1 July heating degree days 172 247  
Cooling Degree Days 0 0  
Month to date cooling degree days 26 7  
Year to date cooling degree days 1163 962  
Moisture  
Dew Point 48 °F    
Average Humidity 93    
Maximum Humidity 100    
Minimum Humidity 82    
Precipitation  
Precipitation 0.54 in 0.12 in 3.70 in (1910)
Month to date precipitation 2.75 2.72  
Year to date precipitation 41.41 37.97  
Sea Level Pressure  
Sea Level Pressure 29.98 in    
Wind  
Wind Speed 5 mph ()    
Max Wind Speed 14 mph    
Max Gust Speed 19 mph    
Visibility 6.1 miles    
Events Rain    
T = Trace of Precipitation, MM = Missing Value Source: Averaged Metar Reports

Daily Weather History Graph

Daily Weather History Graph

Search for Another Location

Airport or City:

Astronomy

Oct. 20, 2019 Rise Set
Actual Time 7:15 AM EDT 6:12 PM EDT
Civil Twilight 6:47 AM EDT 6:39 PM EDT
Nautical Twilight 6:15 AM EDT 7:11 PM EDT
Astronomical Twilight 5:44 AM EDT 7:43 PM EDT
Moon 11:18 PM EDT (10/20) 1:41 PM EDT (10/20)
Length of Visible Light 11h 52m
Length of Day
10h 57m
Waning Gibbous, 59% of the Moon is Illuminated
Oct 20
Waning Gibbous
Oct 21
Last Quarter
Oct 27
New
Nov 4
First Quarter
Nov 12
Full

Hourly Weather History & Observations

Time (EDT) Temp. Windchill Dew Point Humidity Pressure Visibility Wind Dir Wind Speed Gust Speed Precip Events Conditions
12:53 AM 45.0 °F - 39.9 °F 82% 30.02 in 10.0 mi Calm Calm - N/A   Clear
1:53 AM 45.0 °F - 41.0 °F 86% 30.02 in 10.0 mi Calm Calm - N/A   Clear
2:53 AM 44.1 °F - 41.0 °F 89% 30.01 in 10.0 mi Calm Calm - N/A   Clear
3:53 AM 42.1 °F - 39.0 °F 89% 29.99 in 10.0 mi Calm Calm - N/A   Clear
4:53 AM 43.0 °F 41.3 °F 41.0 °F 93% 29.99 in 9.0 mi North 3.5 mph - N/A   Clear
5:53 AM 43.0 °F - 41.0 °F 93% 29.99 in 9.0 mi Calm Calm - N/A   Clear
6:53 AM 43.0 °F 40.3 °F 41.0 °F 93% 30.00 in 8.0 mi North 4.6 mph - N/A   Clear
7:53 AM 44.1 °F 42.5 °F 43.0 °F 96% 30.01 in 8.0 mi North 3.5 mph - N/A   Clear
8:53 AM 46.9 °F - 45.0 °F 93% 30.02 in 9.0 mi NE 4.6 mph - N/A   Clear
9:53 AM 50.0 °F - 46.0 °F 86% 30.02 in 10.0 mi NE 4.6 mph - N/A   Mostly Cloudy
10:53 AM 52.0 °F - 48.0 °F 86% 30.01 in 10.0 mi NE 4.6 mph - 0.00 in Rain Light Rain
11:53 AM 53.1 °F - 48.9 °F 86% 30.02 in 8.0 mi NNE 4.6 mph - 0.00 in Rain Light Rain
12:53 PM 52.0 °F - 48.9 °F 89% 30.01 in 5.0 mi North 5.8 mph - 0.02 in Rain Light Rain
1:14 PM 52.0 °F - 50.0 °F 93% 30.02 in 1.8 mi North 6.9 mph - 0.04 in Rain Heavy Rain
1:37 PM 52.0 °F - 50.0 °F 93% 30.01 in 2.5 mi North 6.9 mph - 0.11 in Rain Rain
1:53 PM 52.0 °F - 50.0 °F 93% 29.99 in 3.0 mi NNE 6.9 mph - 0.13 in Rain Rain
2:49 PM 51.8 °F - 51.8 °F 100% 29.97 in 2.5 mi NNE 8.1 mph - 0.07 in Rain Rain
2:53 PM 52.0 °F - 51.1 °F 97% 29.96 in 2.5 mi NNE 8.1 mph - 0.07 in Rain Light Rain
3:50 PM 51.8 °F - 51.8 °F 100% 29.96 in 3.0 mi NE 11.5 mph - 0.07 in Rain Rain
3:53 PM 52.0 °F - 51.1 °F 97% 29.94 in 3.0 mi NE 9.2 mph - 0.07 in Rain Rain
4:53 PM 53.1 °F - 52.0 °F 96% 29.94 in 4.0 mi NNE 10.4 mph - 0.09 in Rain Rain
5:53 PM 53.1 °F - 51.1 °F 93% 29.94 in 10.0 mi NE 13.8 mph - 0.02 in Rain Light Rain
6:33 PM 53.1 °F - 51.1 °F 93% 29.95 in 6.0 mi NE 8.1 mph - 0.01 in Rain Light Rain
6:44 PM 53.1 °F - 52.0 °F 96% 29.96 in 5.0 mi NE 10.4 mph - 0.02 in Rain Rain
6:53 PM 53.1 °F - 51.1 °F 93% 29.94 in 3.0 mi NNE 12.7 mph - 0.03 in Rain Rain
7:12 PM 53.1 °F - 51.1 °F 93% 29.96 in 3.0 mi NE 12.7 mph - 0.02 in Rain Light Rain
7:23 PM 53.1 °F - 51.1 °F 93% 29.96 in 2.5 mi NE 11.5 mph - 0.03 in Rain Light Rain
7:49 PM 53.6 °F - 51.8 °F 94% 29.95 in 3.0 mi NE 10.4 mph - 0.06 in Rain Light Rain
7:53 PM 53.1 °F - 51.1 °F 93% 29.94 in 3.0 mi NE 11.5 mph - 0.06 in Rain Light Rain
8:53 PM 52.0 °F - 51.1 °F 97% 29.95 in 4.0 mi NE 11.5 mph - 0.02 in Rain Light Rain
8:58 PM 52.0 °F - 51.1 °F 97% 29.96 in 4.0 mi NE 11.5 mph - 0.00 in Rain Light Rain
9:53 PM 52.0 °F - 51.1 °F 97% 29.95 in 8.0 mi NE 9.2 mph - 0.02 in Rain Light Rain
10:53 PM 52.0 °F - 50.0 °F 93% 29.96 in 10.0 mi NNE 8.1 mph - 0.01 in Rain Light Rain
11:53 PM 52.0 °F - 50.0 °F 93% 29.94 in 7.0 mi NE 9.2 mph - 0.00 in   Overcast